• în Republica Moldova
  • Lista ţărilor
  • Pe 7 zile
  • Temperatura apei
  • Hartă satelitară
  • Meteo pe hartă
  • Widget-uri
  • user-avatar
    Intrare

    Meteo pe oră la Tibissa

    Astăzi, 26 Martie, Duminică

    Timp Temperatura Precipitaţii Vânt Presiune Umiditate
    00:00 +10°C° 0 mm 1 m/s 687 mmHg 83%
    01:00 +10°C° 0 mm 1 m/s 687 mmHg 84%
    02:00 +10°C° 0 mm 1 m/s 687 mmHg 86%
    03:00 +10°C° 0 mm 1 m/s 687 mmHg 87%
    04:00 +10°C° 0 mm 1 m/s 687 mmHg 89%
    05:00 +10°C° 0 mm 1 m/s 687 mmHg 89%
    06:00 +10°C° 0 mm 1 m/s 687 mmHg 88%
    07:00 +10°C° 0 mm 1 m/s 687 mmHg 87%
    08:00 +12°C° 0 mm 1 m/s 687 mmHg 73%
    09:00 +14°C° 0 mm 1 m/s 687 mmHg 59%
    10:00 +15°C° 0 mm 0 m/s 688 mmHg 46%
    11:00 +19°C° 0 mm 1 m/s 688 mmHg 38%
    12:00 +20°C° 0 mm 1 m/s 687 mmHg 31%
    13:00 +22°C° 0 mm 1 m/s 687 mmHg 23%
    14:00 +21°C° 0 mm 2 m/s 687 mmHg 23%
    15:00 +21°C° 0 mm 2 m/s 687 mmHg 23%
    16:00 +21°C° 0 mm 3 m/s 686 mmHg 23%
    17:00 +19°C° 0 mm 2 m/s 686 mmHg 31%
    18:00 +17°C° 0 mm 2 m/s 685 mmHg 39%
    19:00 +15°C° 0 mm 2 m/s 685 mmHg 47%
    20:00 +14°C° 0 mm 2 m/s 685 mmHg 51%
    21:00 +13°C° 0 mm 2 m/s 686 mmHg 56%
    22:00 +12°C° 0 mm 1 m/s 686 mmHg 60%
    23:00 +12°C° 0 mm 1 m/s 686 mmHg 63%

    Mâine, 27 Martie, Luni

    Timp Temperatura Precipitaţii Vânt Presiune Umiditate
    00:00 +11°C° 0 mm 1 m/s 686 mmHg 65%
    01:00 +11°C° 0 mm 1 m/s 686 mmHg 68%
    02:00 +10°C° 0 mm 1 m/s 685 mmHg 69%
    03:00 +10°C° 0 mm 1 m/s 685 mmHg 69%
    04:00 +9°C° 0 mm 1 m/s 685 mmHg 70%
    05:00 +10°C° 0 mm 1 m/s 685 mmHg 68%
    06:00 +10°C° 0 mm 1 m/s 685 mmHg 67%
    07:00 +10°C° 0 mm 1 m/s 685 mmHg 65%
    08:00 +13°C° 0 mm 1 m/s 686 mmHg 54%
    09:00 +16°C° 0 mm 1 m/s 687 mmHg 43%
    10:00 +20°C° 0 mm 1 m/s 688 mmHg 32%
    11:00 +21°C° 0 mm 1 m/s 688 mmHg 29%
    12:00 +21°C° 0 mm 2 m/s 688 mmHg 25%
    13:00 +23°C° 0 mm 2 m/s 688 mmHg 21%
    14:00 +22°C° 0 mm 3 m/s 688 mmHg 22%
    15:00 +23°C° 0 mm 4 m/s 687 mmHg 22%
    16:00 +23°C° 0 mm 4 m/s 687 mmHg 22%
    17:00 +21°C° 0 mm 4 m/s 687 mmHg 33%
    18:00 +18°C° 0 mm 4 m/s 687 mmHg 44%
    19:00 +15°C° 0 mm 5 m/s 687 mmHg 55%
    20:00 +14°C° 0 mm 4 m/s 687 mmHg 63%
    21:00 +13°C° 0 mm 4 m/s 687 mmHg 71%
    22:00 +11°C° 0 mm 3 m/s 688 mmHg 79%
    23:00 +11°C° 0 mm 3 m/s 688 mmHg 80%

    Poimâine, 28 Martie, Marţi

    Timp Temperatura Precipitaţii Vânt Presiune Umiditate
    00:00 +10°C° 0 mm 3 m/s 688 mmHg 82%
    01:00 +9°C° 0 mm 2 m/s 688 mmHg 84%
    02:00 +9°C° 0 mm 2 m/s 688 mmHg 85%
    03:00 +8°C° 0 mm 2 m/s 687 mmHg 86%
    04:00 +8°C° 0 mm 2 m/s 687 mmHg 86%
    05:00 +8°C° 0 mm 2 m/s 687 mmHg 83%
    06:00 +8°C° 0 mm 2 m/s 687 mmHg 80%
    07:00 +9°C° 0 mm 1 m/s 687 mmHg 77%
    08:00 +10°C° 0 mm 2 m/s 688 mmHg 66%
    09:00 +14°C° 0 mm 2 m/s 689 mmHg 54%
    10:00 +16°C° 0 mm 2 m/s 690 mmHg 43%
    11:00 +17°C° 0 mm 2 m/s 690 mmHg 40%
    12:00 +18°C° 0 mm 3 m/s 689 mmHg 37%
    13:00 +19°C° 0 mm 3 m/s 689 mmHg 35%
    14:00 +19°C° 0,2 mm 3 m/s 689 mmHg 36%
    15:00 +19°C° 0,2 mm 3 m/s 689 mmHg 37%
    16:00 +18°C° 0,2 mm 4 m/s 688 mmHg 38%
    17:00 +17°C° 0,7 mm 3 m/s 688 mmHg 47%
    18:00 +14°C° 0,7 mm 3 m/s 688 mmHg 57%
    19:00 +12°C° 0,7 mm 3 m/s 688 mmHg 66%
    20:00 +12°C° 0,2 mm 2 m/s 689 mmHg 73%
    21:00 +10°C° 0,2 mm 2 m/s 689 mmHg 79%
    22:00 +9°C° 0,2 mm 2 m/s 689 mmHg 86%
    23:00 +9°C° 0 mm 2 m/s 689 mmHg 88%

    29 Martie, Miercuri

    Timp Temperatura Precipitaţii Vânt Presiune Umiditate
    00:00 +9°C° 0 mm 2 m/s 689 mmHg 89%
    01:00 +9°C° 0 mm 2 m/s 689 mmHg 90%
    02:00 +8°C° 0 mm 2 m/s 689 mmHg 90%
    03:00 +8°C° 0 mm 2 m/s 688 mmHg 90%
    04:00 +8°C° 0 mm 2 m/s 688 mmHg 90%
    05:00 +8°C° 0 mm 2 m/s 688 mmHg 89%
    06:00 +8°C° 0 mm 3 m/s 689 mmHg 88%
    07:00 +8°C° 0 mm 3 m/s 689 mmHg 87%
    08:00 +8°C° 0,1 mm 4 m/s 689 mmHg 80%
    09:00 +10°C° 0,1 mm 4 m/s 690 mmHg 73%
    10:00 +10°C° 0,1 mm 5 m/s 690 mmHg 66%
    11:00 +12°C° 0,1 mm 5 m/s 690 mmHg 62%
    12:00 +13°C° 0,1 mm 5 m/s 690 mmHg 58%
    13:00 +13°C° 0,1 mm 4 m/s 690 mmHg 54%
    14:00 +13°C° 0,1 mm 5 m/s 690 mmHg 54%
    15:00 +13°C° 0,1 mm 5 m/s 689 mmHg 53%
    16:00 +14°C° 0,1 mm 5 m/s 689 mmHg 52%
    17:00 +12°C° 0 mm 4 m/s 689 mmHg 59%
    18:00 +11°C° 0 mm 4 m/s 689 mmHg 65%
    19:00 +10°C° 0 mm 3 m/s 689 mmHg 72%
    20:00 +9°C° 0 mm 3 m/s 689 mmHg 77%
    21:00 +8°C° 0 mm 2 m/s 690 mmHg 82%
    22:00 +7°C° 0 mm 2 m/s 690 mmHg 87%
    23:00 +6°C° 0 mm 2 m/s 690 mmHg 88%

    30 Martie, Joi

    Timp Temperatura Precipitaţii Vânt Presiune Umiditate
    00:00 +7°C° 0 mm 1 m/s 690 mmHg 89%
    01:00 +6°C° 0 mm 1 m/s 690 mmHg 91%
    02:00 +6°C° 0 mm 1 m/s 690 mmHg 91%
    03:00 +5°C° 0 mm 1 m/s 689 mmHg 92%
    04:00 +5°C° 0 mm 1 m/s 689 mmHg 92%
    05:00 +5°C° 0 mm 1 m/s 690 mmHg 91%
    06:00 +5°C° 0 mm 1 m/s 690 mmHg 90%
    07:00 +5°C° 0 mm 1 m/s 690 mmHg 89%
    08:00 +8°C° 0 mm 1 m/s 691 mmHg 71%
    09:00 +10°C° 0 mm 1 m/s 691 mmHg 53%
    10:00 +13°C° 0 mm 2 m/s 692 mmHg 35%
    11:00 +14°C° 0 mm 1 m/s 692 mmHg 31%
    12:00 +16°C° 0 mm 1 m/s 692 mmHg 26%
    13:00 +18°C° 0 mm 1 m/s 692 mmHg 21%
    14:00 +19°C° 0 mm 1 m/s 692 mmHg 20%
    15:00 +19°C° 0 mm 1 m/s 691 mmHg 20%
    16:00 +19°C° 0 mm 2 m/s 691 mmHg 19%
    17:00 +17°C° 0 mm 2 m/s 691 mmHg 25%
    18:00 +15°C° 0 mm 2 m/s 691 mmHg 31%
    19:00 +13°C° 0 mm 2 m/s 690 mmHg 37%
    20:00 +12°C° 0 mm 2 m/s 690 mmHg 42%
    21:00 +10°C° 0 mm 2 m/s 691 mmHg 46%
    22:00 +9°C° 0 mm 2 m/s 691 mmHg 51%
    23:00 +9°C° 0 mm 2 m/s 691 mmHg 56%

    31 Martie, Vineri

    Timp Temperatura Precipitaţii Vânt Presiune Umiditate
    00:00 +8°C° 0 mm 2 m/s 690 mmHg 60%
    01:00 +8°C° 0 mm 2 m/s 690 mmHg 65%
    02:00 +8°C° 0 mm 2 m/s 690 mmHg 68%
    03:00 +8°C° 0 mm 2 m/s 689 mmHg 71%
    04:00 +7°C° 0 mm 2 m/s 689 mmHg 74%
    05:00 +8°C° 0 mm 2 m/s 689 mmHg 74%
    06:00 +8°C° 0 mm 3 m/s 689 mmHg 73%
    07:00 +8°C° 0 mm 3 m/s 689 mmHg 72%
    08:00 +11°C° 0 mm 3 m/s 690 mmHg 60%
    09:00 +14°C° 0 mm 4 m/s 691 mmHg 48%
    10:00 +18°C° 0 mm 4 m/s 691 mmHg 36%
    11:00 +19°C° 0 mm 5 m/s 691 mmHg 32%
    12:00 +21°C° 0 mm 5 m/s 691 mmHg 27%
    13:00 +22°C° 0 mm 5 m/s 690 mmHg 23%
    14:00 +23°C° 0 mm 5 m/s 690 mmHg 23%
    15:00 +23°C° 0 mm 5 m/s 689 mmHg 23%
    16:00 +23°C° 0 mm 6 m/s 689 mmHg 23%
    17:00 +21°C° 0 mm 5 m/s 688 mmHg 29%
    18:00 +19°C° 0 mm 5 m/s 688 mmHg 35%
    19:00 +17°C° 0 mm 4 m/s 687 mmHg 40%
    20:00 +15°C° 0 mm 4 m/s 687 mmHg 43%
    21:00 +14°C° 0 mm 3 m/s 687 mmHg 47%
    22:00 +13°C° 0 mm 3 m/s 687 mmHg 50%
    23:00 +12°C° 0 mm 3 m/s 687 mmHg 50%
    Arată mai mult